Time,TemperatureF,DewpointF,PressureIn,WindDirection,WindDirectionDegrees,WindSpeedMPH,WindSpeedGustMPH,Humidity,HourlyPrecipIn,Conditions,Clouds,dailyrainin,SoftwareType,DateUTC
2013-03-16 00:00:00,26.6,24.8,29.36,ESE,113,5.6,5.6,93,0.00,,,0.00,WUHU216HW,2013-03-16 05:00:00,
2013-03-16 00:05:00,26.5,24.7,29.37,ESE,113,3.8,5.6,93,0.00,,,0.00,WUHU216HW,2013-03-16 05:05:00,
2013-03-16 00:10:00,26.5,24.5,29.37,ESE,113,3.8,5.6,92,0.00,,,0.00,WUHU216HW,2013-03-16 05:10:00,
2013-03-16 00:15:00,26.5,24.5,29.37,ESE,113,11.9,11.9,92,0.00,,,0.00,WUHU216HW,2013-03-16 05:15:00,
2013-03-16 00:20:00,26.5,24.5,29.36,ESE,113,6.3,11.9,92,0.00,,,0.00,WUHU216HW,2013-03-16 05:20:00,
2013-03-16 00:25:00,26.3,24.3,29.35,ESE,113,5.4,11.9,92,0.00,,,0.00,WUHU216HW,2013-03-16 05:25:00,
2013-03-16 00:30:00,26.5,24.5,29.36,ESE,113,6.0,6.3,92,0.00,,,0.00,WUHU216HW,2013-03-16 05:30:00,
2013-03-16 00:35:00,26.5,24.5,29.36,ESE,113,3.4,6.3,92,0.00,,,0.00,WUHU216HW,2013-03-16 05:35:00,
2013-03-16 00:40:00,26.3,24.3,29.36,ESE,113,13.4,13.4,92,0.00,,,0.00,WUHU216HW,2013-03-16 05:40:00,
2013-03-16 00:45:00,26.3,24.0,29.35,ESE,113,6.7,13.4,91,0.00,,,0.00,WUHU216HW,2013-03-16 05:45:00,
2013-03-16 00:50:00,26.3,24.3,29.36,ESE,113,4.9,13.4,92,0.00,,,0.00,WUHU216HW,2013-03-16 05:50:00,
2013-03-16 00:55:00,26.1,24.1,29.36,ESE,113,4.7,6.7,92,0.00,,,0.00,WUHU216HW,2013-03-16 05:55:00,
2013-03-16 01:00:00,26.1,24.1,29.36,ESE,113,7.6,7.6,92,0.00,,,0.00,WUHU216HW,2013-03-16 06:00:00,
2013-03-16 01:05:00,25.9,24.0,29.36,ESE,113,5.8,7.6,92,0.00,,,0.00,WUHU216HW,2013-03-16 06:05:00,
2013-03-16 01:10:00,25.9,24.0,29.36,ESE,113,8.5,8.5,92,0.00,,,0.00,WUHU216HW,2013-03-16 06:10:00,
2013-03-16 01:15:00,25.7,23.8,29.36,ESE,113,6.5,8.5,92,0.00,,,0.00,WUHU216HW,2013-03-16 06:15:00,
2013-03-16 01:20:00,25.6,23.6,29.36,ESE,113,6.7,8.5,92,0.00,,,0.00,WUHU216HW,2013-03-16 06:20:00,
2013-03-16 01:25:00,25.6,23.3,29.36,ESE,113,4.7,9.2,91,0.00,,,0.00,WUHU216HW,2013-03-16 06:25:00,
2013-03-16 01:30:00,25.6,23.6,29.35,ESE,113,4.5,9.2,92,0.00,,,0.00,WUHU216HW,2013-03-16 06:30:00,
2013-03-16 01:35:00,25.6,23.6,29.35,ESE,113,6.9,7.2,92,0.00,,,0.00,WUHU216HW,2013-03-16 06:35:00,
2013-03-16 01:40:00,25.6,23.6,29.35,ESE,113,8.1,8.1,92,0.00,,,0.00,WUHU216HW,2013-03-16 06:40:00,
2013-03-16 01:45:00,25.4,23.1,29.35,ESE,113,7.8,8.1,91,0.00,,,0.00,WUHU216HW,2013-03-16 06:45:00,
2013-03-16 01:50:00,25.2,23.0,29.35,ESE,113,7.6,8.1,91,0.00,,,0.00,WUHU216HW,2013-03-16 06:50:00,
2013-03-16 01:55:00,25.2,23.0,29.35,ESE,113,6.0,7.8,91,0.00,,,0.00,WUHU216HW,2013-03-16 06:55:00,
2013-03-16 02:00:00,25.2,23.0,29.35,ESE,113,3.4,7.6,91,0.00,,,0.00,WUHU216HW,2013-03-16 07:00:00,
2013-03-16 02:05:00,25.0,22.8,29.35,ESE,113,3.6,6.0,91,0.00,,,0.00,WUHU216HW,2013-03-16 07:05:00,
2013-03-16 02:10:00,25.0,22.8,29.35,ESE,113,8.5,8.5,91,0.00,,,0.00,WUHU216HW,2013-03-16 07:10:00,
2013-03-16 02:15:00,24.8,22.6,29.35,ESE,113,6.0,8.5,91,0.00,,,0.00,WUHU216HW,2013-03-16 07:15:00,
2013-03-16 02:20:00,24.8,22.3,29.35,ESE,113,6.9,9.4,90,0.00,,,0.00,WUHU216HW,2013-03-16 07:20:00,
2013-03-16 02:25:00,24.8,22.3,29.35,ESE,113,2.0,9.4,90,0.00,,,0.00,WUHU216HW,2013-03-16 07:25:00,
2013-03-16 02:30:00,24.8,22.6,29.35,ESE,113,3.6,7.6,91,0.00,,,0.00,WUHU216HW,2013-03-16 07:30:00,
2013-03-16 02:35:00,24.7,22.4,29.35,ESE,113,5.1,7.6,91,0.00,,,0.00,WUHU216HW,2013-03-16 07:35:00,
2013-03-16 02:40:00,24.5,22.2,29.35,ESE,113,3.6,7.6,91,0.00,,,0.00,WUHU216HW,2013-03-16 07:40:00,
2013-03-16 02:45:00,24.3,22.1,29.36,ESE,113,4.0,6.3,91,0.00,,,0.00,WUHU216HW,2013-03-16 07:45:00,
2013-03-16 02:50:00,24.3,22.1,29.36,ESE,113,4.5,8.5,91,0.00,,,0.00,WUHU216HW,2013-03-16 07:50:00,
2013-03-16 02:55:00,24.1,21.6,29.36,ESE,113,5.4,8.5,90,0.00,,,0.00,WUHU216HW,2013-03-16 07:55:00,
2013-03-16 03:00:00,24.1,21.6,29.36,ESE,113,4.7,6.5,90,0.00,,,0.00,WUHU216HW,2013-03-16 08:00:00,
2013-03-16 03:05:00,24.1,21.6,29.36,ESE,113,3.6,9.8,90,0.00,,,0.00,WUHU216HW,2013-03-16 08:05:00,
2013-03-16 03:10:00,24.1,21.6,29.36,ESE,113,6.9,9.8,90,0.00,,,0.00,WUHU216HW,2013-03-16 08:10:00,
2013-03-16 03:15:00,23.9,21.4,29.36,ESE,113,9.8,10.7,90,0.00,,,0.00,WUHU216HW,2013-03-16 08:15:00,
2013-03-16 03:20:00,23.9,21.7,29.36,ESE,113,6.7,10.7,91,0.00,,,0.00,WUHU216HW,2013-03-16 08:20:00,
2013-03-16 03:25:00,23.9,21.7,29.36,ESE,113,4.0,9.8,91,0.00,,,0.00,WUHU216HW,2013-03-16 08:25:00,
2013-03-16 03:30:00,23.9,21.7,29.36,ESE,113,3.4,6.7,91,0.00,,,0.00,WUHU216HW,2013-03-16 08:30:00,
2013-03-16 03:35:00,23.9,21.7,29.35,ESE,113,3.6,7.8,91,0.00,,,0.00,WUHU216HW,2013-03-16 08:35:00,
2013-03-16 03:40:00,23.9,22.0,29.36,ESE,113,4.0,7.8,92,0.00,,,0.00,WUHU216HW,2013-03-16 08:40:00,
2013-03-16 03:45:00,23.8,21.8,29.36,ESE,113,6.9,7.6,92,0.00,,,0.00,WUHU216HW,2013-03-16 08:45:00,
2013-03-16 03:50:00,23.8,21.8,29.35,ESE,113,12.1,12.1,92,0.00,,,0.00,WUHU216HW,2013-03-16 08:50:00,
2013-03-16 03:55:00,23.4,21.2,29.36,ESE,113,13.2,13.2,91,0.00,,,0.00,WUHU216HW,2013-03-16 08:55:00,
2013-03-16 04:00:00,22.9,20.6,29.36,ESE,113,12.1,14.8,91,0.00,,,0.00,WUHU216HW,2013-03-16 09:00:00,
2013-03-16 04:05:00,22.7,20.4,29.35,ESE,113,5.1,14.8,91,0.00,,,0.00,WUHU216HW,2013-03-16 09:05:00,
2013-03-16 04:10:00,22.3,20.1,29.36,ESE,113,11.4,12.1,91,0.00,,,0.00,WUHU216HW,2013-03-16 09:10:00,
2013-03-16 04:15:00,22.1,19.9,29.37,ESE,113,11.6,11.6,91,0.00,,,0.00,WUHU216HW,2013-03-16 09:15:00,
2013-03-16 04:20:00,22.0,19.7,29.37,ESE,113,11.0,12.8,91,0.00,,,0.00,WUHU216HW,2013-03-16 09:20:00,
2013-03-16 04:25:00,21.6,19.4,29.37,ESE,113,12.8,14.3,91,0.00,,,0.00,WUHU216HW,2013-03-16 09:25:00,
2013-03-16 04:30:00,21.6,19.4,29.37,ESE,113,14.5,14.5,91,0.00,,,0.00,WUHU216HW,2013-03-16 09:30:00,
2013-03-16 04:35:00,21.2,19.0,29.37,ESE,113,13.9,14.8,91,0.00,,,0.00,WUHU216HW,2013-03-16 09:35:00,
2013-03-16 04:40:00,21.2,19.0,29.37,ESE,113,11.6,14.8,91,0.00,,,0.00,WUHU216HW,2013-03-16 09:40:00,
2013-03-16 04:45:00,21.1,18.8,29.37,ESE,113,15.4,17.0,91,0.00,,,0.00,WUHU216HW,2013-03-16 09:45:00,
2013-03-16 04:50:00,20.9,18.6,29.37,ESE,113,15.0,17.0,91,0.00,,,0.00,WUHU216HW,2013-03-16 09:50:00,
2013-03-16 04:55:00,20.5,18.3,29.37,ESE,113,13.6,16.8,91,0.00,,,0.00,WUHU216HW,2013-03-16 09:55:00,
2013-03-16 05:00:00,20.5,18.3,29.37,ESE,113,15.0,15.0,91,0.00,,,0.00,WUHU216HW,2013-03-16 10:00:00,
2013-03-16 05:05:00,20.3,18.1,29.38,ESE,113,16.1,16.1,91,0.00,,,0.00,WUHU216HW,2013-03-16 10:05:00,
2013-03-16 05:10:00,20.2,17.6,29.38,ESE,113,16.6,16.6,90,0.00,,,0.00,WUHU216HW,2013-03-16 10:10:00,
2013-03-16 05:15:00,20.2,17.6,29.39,ESE,113,15.0,16.6,90,0.00,,,0.00,WUHU216HW,2013-03-16 10:15:00,
2013-03-16 05:20:00,20.0,17.5,29.39,ESE,113,14.8,16.6,90,0.00,,,0.00,WUHU216HW,2013-03-16 10:20:00,
2013-03-16 05:25:00,19.8,17.3,29.39,ESE,113,14.3,16.6,90,0.00,,,0.00,WUHU216HW,2013-03-16 10:25:00,
2013-03-16 05:30:00,19.8,17.3,29.39,ESE,113,15.7,15.7,90,0.00,,,0.00,WUHU216HW,2013-03-16 10:30:00,
2013-03-16 05:35:00,19.6,17.4,29.39,ESE,113,14.3,16.3,91,0.00,,,0.00,WUHU216HW,2013-03-16 10:35:00,
2013-03-16 05:40:00,19.6,17.4,29.39,ESE,113,13.6,16.3,91,0.00,,,0.00,WUHU216HW,2013-03-16 10:40:00,
2013-03-16 05:45:00,19.4,16.9,29.39,ESE,113,13.4,17.0,90,0.00,,,0.00,WUHU216HW,2013-03-16 10:45:00,
2013-03-16 05:50:00,19.3,17.0,29.40,ESE,113,17.2,17.2,91,0.00,,,0.00,WUHU216HW,2013-03-16 10:50:00,
2013-03-16 05:55:00,19.3,17.0,29.40,ESE,113,9.6,17.2,91,0.00,,,0.00,WUHU216HW,2013-03-16 10:55:00,
2013-03-16 06:00:00,19.3,17.0,29.40,ESE,113,14.5,17.2,91,0.00,,,0.00,WUHU216HW,2013-03-16 11:00:00,
2013-03-16 06:05:00,19.3,16.7,29.40,ESE,113,11.6,17.4,90,0.00,,,0.00,WUHU216HW,2013-03-16 11:05:00,
2013-03-16 06:10:00,19.1,16.6,29.40,ESE,113,13.4,17.4,90,0.00,,,0.00,WUHU216HW,2013-03-16 11:10:00,
2013-03-16 06:15:00,19.1,16.8,29.41,ESE,113,17.9,17.9,91,0.00,,,0.00,WUHU216HW,2013-03-16 11:15:00,
2013-03-16 06:20:00,19.1,16.8,29.41,ESE,113,12.3,17.9,91,0.00,,,0.00,WUHU216HW,2013-03-16 11:20:00,
2013-03-16 06:25:00,18.9,16.7,29.42,ESE,113,14.3,17.9,91,0.00,,,0.00,WUHU216HW,2013-03-16 11:25:00,
2013-03-16 06:30:00,18.9,16.7,29.41,ESE,113,13.2,16.8,91,0.00,,,0.00,WUHU216HW,2013-03-16 11:30:00,
2013-03-16 06:35:00,18.9,16.4,29.42,ESE,113,14.5,16.8,90,0.00,,,0.00,WUHU216HW,2013-03-16 11:35:00,
2013-03-16 06:40:00,18.7,16.5,29.42,ESE,113,15.0,16.3,91,0.00,,,0.00,WUHU216HW,2013-03-16 11:40:00,
2013-03-16 06:45:00,18.7,16.2,29.43,ESE,113,13.4,16.3,90,0.00,,,0.00,WUHU216HW,2013-03-16 11:45:00,
2013-03-16 06:50:00,18.7,16.2,29.42,ESE,113,14.3,15.4,90,0.00,,,0.00,WUHU216HW,2013-03-16 11:50:00,
2013-03-16 06:55:00,18.5,16.0,29.42,ESE,113,10.7,15.9,90,0.00,,,0.00,WUHU216HW,2013-03-16 11:55:00,
2013-03-16 07:00:00,18.5,16.0,29.42,ESE,113,13.0,17.2,90,0.00,,,0.00,WUHU216HW,2013-03-16 12:00:00,
2013-03-16 07:05:00,18.5,16.0,29.43,ESE,113,10.3,17.2,90,0.00,,,0.00,WUHU216HW,2013-03-16 12:05:00,
2013-03-16 07:10:00,18.5,16.0,29.43,ESE,113,13.4,18.3,90,0.00,,,0.00,WUHU216HW,2013-03-16 12:10:00,
2013-03-16 07:15:00,18.5,16.0,29.43,ESE,113,14.3,18.3,90,0.00,,,0.00,WUHU216HW,2013-03-16 12:15:00,
2013-03-16 07:20:00,18.5,16.0,29.43,ESE,113,14.8,14.8,90,0.00,,,0.00,WUHU216HW,2013-03-16 12:20:00,
2013-03-16 07:25:00,18.5,16.3,29.43,ESE,113,14.8,15.4,91,0.00,,,0.00,WUHU216HW,2013-03-16 12:25:00,
2013-03-16 07:30:00,18.5,16.0,29.43,ESE,113,15.4,17.2,90,0.00,,,0.00,WUHU216HW,2013-03-16 12:30:00,
2013-03-16 07:35:00,18.5,16.0,29.44,ESE,113,14.8,17.9,90,0.00,,,0.00,WUHU216HW,2013-03-16 12:35:00,
2013-03-16 07:40:00,18.5,16.0,29.44,ESE,113,10.5,17.9,90,0.00,,,0.00,WUHU216HW,2013-03-16 12:40:00,
2013-03-16 07:45:00,18.5,16.0,29.44,ESE,113,14.3,16.1,90,0.00,,,0.00,WUHU216HW,2013-03-16 12:45:00,
2013-03-16 07:50:00,18.5,16.0,29.45,ESE,113,12.8,16.1,90,0.00,,,0.00,WUHU216HW,2013-03-16 12:50:00,
2013-03-16 07:55:00,18.5,16.0,29.45,ESE,113,12.3,15.7,90,0.00,,,0.00,WUHU216HW,2013-03-16 12:55:00,
2013-03-16 08:00:00,18.5,16.0,29.45,ESE,113,15.0,15.7,90,0.00,,,0.00,WUHU216HW,2013-03-16 13:00:00,
2013-03-16 08:05:00,18.5,16.0,29.45,ESE,113,15.0,15.7,90,0.00,,,0.00,WUHU216HW,2013-03-16 13:05:00,
2013-03-16 08:10:00,18.5,15.8,29.46,ESE,113,12.8,15.7,89,0.00,,,0.00,WUHU216HW,2013-03-16 13:10:00,
2013-03-16 08:15:00,18.7,15.9,29.46,ESE,113,13.9,15.0,89,0.00,,,0.00,WUHU216HW,2013-03-16 13:15:00,
2013-03-16 08:20:00,18.7,15.9,29.46,ESE,113,12.8,15.9,89,0.00,,,0.00,WUHU216HW,2013-03-16 13:20:00,
2013-03-16 08:25:00,18.9,16.1,29.47,ESE,113,15.0,15.9,89,0.00,,,0.00,WUHU216HW,2013-03-16 13:25:00,
2013-03-16 08:30:00,19.1,16.0,29.47,ESE,113,9.4,15.2,88,0.00,,,0.00,WUHU216HW,2013-03-16 13:30:00,
2013-03-16 08:35:00,19.1,16.0,29.47,ESE,113,11.4,15.2,88,0.00,,,0.00,WUHU216HW,2013-03-16 13:35:00,
2013-03-16 08:40:00,19.1,16.0,29.47,ESE,113,10.5,11.4,88,0.00,,,0.00,WUHU216HW,2013-03-16 13:40:00,
2013-03-16 08:45:00,19.1,15.8,29.48,ESE,113,10.7,11.4,87,0.00,,,0.00,WUHU216HW,2013-03-16 13:45:00,
2013-03-16 08:50:00,19.3,16.2,29.48,ESE,113,7.6,11.4,88,0.00,,,0.00,WUHU216HW,2013-03-16 13:50:00,
2013-03-16 08:55:00,19.1,15.8,29.48,ESE,113,6.5,15.9,87,0.00,,,0.00,WUHU216HW,2013-03-16 13:55:00,
2013-03-16 09:00:00,19.1,15.8,29.48,ESE,113,11.4,15.9,87,0.00,,,0.00,WUHU216HW,2013-03-16 14:00:00,
2013-03-16 09:05:00,19.3,15.9,29.48,ESE,113,12.1,12.1,87,0.00,,,0.00,WUHU216HW,2013-03-16 14:05:00,
2013-03-16 09:10:00,19.4,16.1,29.48,ESE,113,9.4,12.1,87,0.00,,,0.00,WUHU216HW,2013-03-16 14:10:00,
2013-03-16 09:15:00,19.4,16.1,29.48,ESE,113,9.2,13.4,87,0.00,,,0.00,WUHU216HW,2013-03-16 14:15:00,
2013-03-16 09:20:00,19.6,16.3,29.48,ESE,113,4.7,13.4,87,0.00,,,0.00,WUHU216HW,2013-03-16 14:20:00,
2013-03-16 09:25:00,19.6,16.0,29.49,ESE,113,4.0,13.9,86,0.00,,,0.00,WUHU216HW,2013-03-16 14:25:00,
2013-03-16 09:30:00,19.6,16.0,29.49,ESE,113,12.1,13.9,86,0.00,,,0.00,WUHU216HW,2013-03-16 14:30:00,
2013-03-16 09:35:00,19.6,16.0,29.49,ESE,113,13.4,13.4,86,0.00,,,0.00,WUHU216HW,2013-03-16 14:35:00,
2013-03-16 09:40:00,19.6,16.0,29.50,ESE,113,13.0,13.4,86,0.00,,,0.00,WUHU216HW,2013-03-16 14:40:00,
2013-03-16 09:45:00,19.4,15.8,29.50,ESE,113,5.4,13.4,86,0.00,,,0.00,WUHU216HW,2013-03-16 14:45:00,
2013-03-16 09:50:00,19.4,15.8,29.50,ESE,113,6.9,13.0,86,0.00,,,0.00,WUHU216HW,2013-03-16 14:50:00,
2013-03-16 09:55:00,19.8,16.2,29.50,ESE,113,7.6,8.9,86,0.00,,,0.00,WUHU216HW,2013-03-16 14:55:00,
2013-03-16 10:00:00,20.0,16.1,29.50,ESE,113,4.5,8.9,85,0.00,,,0.00,WUHU216HW,2013-03-16 15:00:00,
2013-03-16 10:05:00,20.0,16.1,29.51,ESE,113,9.8,9.8,85,0.00,,,0.00,WUHU216HW,2013-03-16 15:05:00,
2013-03-16 10:10:00,20.3,16.2,29.51,ESE,113,5.4,9.8,84,0.00,,,0.00,WUHU216HW,2013-03-16 15:10:00,
2013-03-16 10:15:00,20.5,16.4,29.51,ESE,113,8.3,9.8,84,0.00,,,0.00,WUHU216HW,2013-03-16 15:15:00,
2013-03-16 10:20:00,21.1,17.2,29.51,ESE,113,5.4,9.2,85,0.00,,,0.00,WUHU216HW,2013-03-16 15:20:00,
2013-03-16 10:25:00,20.7,16.3,29.51,ESE,113,4.3,9.2,83,0.00,,,0.00,WUHU216HW,2013-03-16 15:25:00,
2013-03-16 10:30:00,20.9,16.7,29.51,ESE,113,3.8,6.0,84,0.00,,,0.00,WUHU216HW,2013-03-16 15:30:00,
2013-03-16 10:36:00,21.1,16.9,29.52,ESE,113,5.1,8.9,84,0.00,,,0.00,WUHU216HW,2013-03-16 15:36:00,
2013-03-16 10:40:00,20.9,16.5,29.52,ESE,113,4.9,9.2,83,0.00,,,0.00,WUHU216HW,2013-03-16 15:40:00,
2013-03-16 10:45:00,21.1,16.9,29.52,ESE,113,6.9,9.2,84,0.00,,,0.00,WUHU216HW,2013-03-16 15:45:00,
2013-03-16 10:50:00,21.2,17.1,29.53,ESE,113,4.7,6.9,84,0.00,,,0.00,WUHU216HW,2013-03-16 15:50:00,
2013-03-16 10:55:00,22.0,17.6,29.53,ESE,113,9.2,12.1,83,0.00,,,0.00,WUHU216HW,2013-03-16 15:55:00,
2013-03-16 11:00:00,22.3,17.9,29.53,ESE,113,8.5,12.1,83,0.00,,,0.00,WUHU216HW,2013-03-16 16:00:00,
2013-03-16 11:05:00,22.3,17.6,29.53,ESE,113,3.1,9.2,82,0.00,,,0.00,WUHU216HW,2013-03-16 16:05:00,
2013-03-16 11:10:00,22.0,17.3,29.53,ESE,113,2.5,8.5,82,0.00,,,0.00,WUHU216HW,2013-03-16 16:10:00,
2013-03-16 11:15:00,21.8,16.8,29.53,ESE,113,3.6,5.8,81,0.00,,,0.00,WUHU216HW,2013-03-16 16:15:00,
2013-03-16 11:20:00,21.4,16.7,29.53,ESE,113,4.0,5.8,82,0.00,,,0.00,WUHU216HW,2013-03-16 16:20:00,
2013-03-16 11:25:00,22.0,17.3,29.54,ESE,113,3.8,7.6,82,0.00,,,0.00,WUHU216HW,2013-03-16 16:25:00,
2013-03-16 11:30:00,22.5,17.6,29.55,ESE,113,3.4,7.6,81,0.00,,,0.00,WUHU216HW,2013-03-16 16:30:00,
2013-03-16 11:35:00,22.0,16.7,29.55,ESE,113,3.8,4.7,80,0.00,,,0.00,WUHU216HW,2013-03-16 16:35:00,
2013-03-16 11:40:00,22.0,17.0,29.55,ESE,113,6.0,6.0,81,0.00,,,0.00,WUHU216HW,2013-03-16 16:40:00,
2013-03-16 11:45:00,22.1,16.9,29.55,ESE,113,4.0,6.0,80,0.00,,,0.00,WUHU216HW,2013-03-16 16:45:00,
2013-03-16 11:50:00,22.5,17.3,29.55,ESE,113,2.7,6.0,80,0.00,,,0.00,WUHU216HW,2013-03-16 16:50:00,
2013-03-16 11:55:00,22.5,17.3,29.55,ESE,113,1.1,4.7,80,0.00,,,0.00,WUHU216HW,2013-03-16 16:55:00,
2013-03-16 12:00:00,23.0,17.8,29.55,ESE,113,3.6,3.6,80,0.00,,,0.00,WUHU216HW,2013-03-16 17:00:00,
2013-03-16 12:05:00,23.2,18.0,29.56,ESE,113,2.5,6.5,80,0.00,,,0.00,WUHU216HW,2013-03-16 17:05:00,
2013-03-16 12:10:00,23.4,18.2,29.55,ESE,113,5.4,6.5,80,0.00,,,0.00,WUHU216HW,2013-03-16 17:10:00,
2013-03-16 12:15:00,23.8,18.3,29.55,ESE,113,2.5,5.4,79,0.00,,,0.00,WUHU216HW,2013-03-16 17:15:00,
2013-03-16 12:20:00,23.6,17.7,29.55,ESE,113,2.0,5.4,78,0.00,,,0.00,WUHU216HW,2013-03-16 17:20:00,
2013-03-16 12:25:00,23.6,17.7,29.55,ESE,113,2.9,5.4,78,0.00,,,0.00,WUHU216HW,2013-03-16 17:25:00,
2013-03-16 12:30:00,23.6,18.1,29.55,ESE,113,2.5,5.4,79,0.00,,,0.00,WUHU216HW,2013-03-16 17:30:00,
2013-03-16 12:35:00,24.1,18.5,29.55,ESE,113,2.9,5.4,79,0.00,,,0.00,WUHU216HW,2013-03-16 17:35:00,
2013-03-16 12:40:00,24.7,19.1,29.55,ESE,113,2.5,5.4,79,0.00,,,0.00,WUHU216HW,2013-03-16 17:40:00,
2013-03-16 12:45:00,24.8,19.0,29.55,ESE,113,2.2,2.9,78,0.00,,,0.00,WUHU216HW,2013-03-16 17:45:00,
2013-03-16 12:50:00,24.8,19.0,29.55,ESE,113,3.1,4.0,78,0.00,,,0.00,WUHU216HW,2013-03-16 17:50:00,
2013-03-16 12:55:00,24.8,19.0,29.55,ESE,113,4.5,4.5,78,0.00,,,0.00,WUHU216HW,2013-03-16 17:55:00,
2013-03-16 13:00:00,24.8,18.6,29.55,ESE,113,4.0,4.5,77,0.01,,,0.01,WUHU216HW,2013-03-16 18:00:00,
2013-03-16 13:05:00,25.6,19.4,29.55,ESE,113,3.8,4.9,77,0.01,,,0.01,WUHU216HW,2013-03-16 18:05:00,
2013-03-16 13:10:00,25.9,19.6,29.55,ESE,113,3.6,4.9,77,0.01,,,0.01,WUHU216HW,2013-03-16 18:10:00,
2013-03-16 13:15:00,25.6,19.0,29.55,ESE,113,3.4,3.8,76,0.02,,,0.02,WUHU216HW,2013-03-16 18:15:00,
2013-03-16 13:20:00,26.5,20.2,29.55,ESE,113,3.6,3.8,77,0.03,,,0.03,WUHU216HW,2013-03-16 18:20:00,
2013-03-16 13:25:00,26.3,19.7,29.55,ESE,113,4.9,5.6,76,0.03,,,0.03,WUHU216HW,2013-03-16 18:25:00,
2013-03-16 13:30:00,26.5,19.9,29.55,ESE,113,6.3,6.3,76,0.05,,,0.05,WUHU216HW,2013-03-16 18:30:00,
2013-03-16 13:35:00,26.6,19.7,29.54,ESE,113,3.1,6.3,75,0.05,,,0.05,WUHU216HW,2013-03-16 18:35:00,
2013-03-16 13:40:00,26.5,19.5,29.54,ESE,113,1.3,6.3,75,0.06,,,0.06,WUHU216HW,2013-03-16 18:40:00,
2013-03-16 13:45:00,26.3,19.1,29.54,ESE,113,2.7,4.3,74,0.06,,,0.06,WUHU216HW,2013-03-16 18:45:00,
2013-03-16 13:50:00,26.5,19.9,29.54,ESE,113,6.7,6.7,76,0.06,,,0.06,WUHU216HW,2013-03-16 18:50:00,
2013-03-16 13:55:00,27.2,20.3,29.54,ESE,113,4.0,6.7,75,0.07,,,0.07,WUHU216HW,2013-03-16 18:55:00,
2013-03-16 14:00:00,27.2,20.0,29.54,ESE,113,2.5,6.7,74,0.06,,,0.07,WUHU216HW,2013-03-16 19:00:00,
2013-03-16 14:05:00,27.2,20.0,29.54,ESE,113,5.4,5.4,74,0.06,,,0.07,WUHU216HW,2013-03-16 19:05:00,
2013-03-16 14:11:00,27.9,21.0,29.54,ESE,113,5.1,6.3,75,0.05,,,0.07,WUHU216HW,2013-03-16 19:11:00,
2013-03-16 14:16:00,28.1,20.9,29.54,ESE,113,5.1,6.3,74,0.06,,,0.08,WUHU216HW,2013-03-16 19:16:00,
2013-03-16 14:21:00,27.7,20.2,29.54,ESE,113,4.0,5.6,73,0.05,,,0.08,WUHU216HW,2013-03-16 19:21:00,
2013-03-16 14:26:00,27.9,20.3,29.53,ESE,113,3.6,6.5,73,0.04,,,0.08,WUHU216HW,2013-03-16 19:26:00,
2013-03-16 14:30:00,27.7,20.2,29.53,ESE,113,4.5,6.5,73,0.03,,,0.08,WUHU216HW,2013-03-16 19:30:00,
2013-03-16 14:35:00,28.3,20.7,29.53,ESE,113,3.8,4.5,73,0.03,,,0.08,WUHU216HW,2013-03-16 19:35:00,
2013-03-16 14:40:00,28.4,20.9,29.53,ESE,113,4.0,5.8,73,0.02,,,0.08,WUHU216HW,2013-03-16 19:40:00,
2013-03-16 14:45:00,28.4,20.9,29.54,ESE,113,2.5,5.8,73,0.02,,,0.08,WUHU216HW,2013-03-16 19:45:00,
2013-03-16 14:50:00,29.0,21.1,29.53,ESE,113,4.0,4.3,72,0.02,,,0.09,WUHU216HW,2013-03-16 19:50:00,
2013-03-16 14:55:00,29.5,20.6,29.54,ESE,113,5.8,5.8,69,0.02,,,0.09,WUHU216HW,2013-03-16 19:55:00,
2013-03-16 15:00:00,30.1,21.4,29.53,ESE,113,6.5,6.5,70,0.02,,,0.09,WUHU216HW,2013-03-16 20:00:00,
2013-03-16 15:06:00,30.2,20.9,29.54,ESE,113,1.6,6.5,68,0.02,,,0.09,WUHU216HW,2013-03-16 20:06:00,
2013-03-16 15:11:00,30.1,20.0,29.54,ESE,113,5.4,6.5,66,0.02,,,0.09,WUHU216HW,2013-03-16 20:11:00,
2013-03-16 15:16:00,30.1,20.3,29.54,ESE,113,6.0,6.3,67,0.01,,,0.09,WUHU216HW,2013-03-16 20:16:00,
2013-03-16 15:21:00,30.2,20.5,29.54,ESE,113,6.0,6.9,67,0.01,,,0.09,WUHU216HW,2013-03-16 20:21:00,
2013-03-16 15:26:00,30.2,20.5,29.54,ESE,113,2.7,6.9,67,0.01,,,0.09,WUHU216HW,2013-03-16 20:26:00,
2013-03-16 15:31:00,30.2,20.5,29.54,ESE,113,1.8,6.0,67,0.01,,,0.09,WUHU216HW,2013-03-16 20:31:00,
2013-03-16 15:36:00,29.7,20.4,29.54,ESE,113,1.1,5.6,68,0.01,,,0.09,WUHU216HW,2013-03-16 20:36:00,
2013-03-16 15:41:00,30.6,21.6,29.54,NNW,338,1.8,5.6,69,0.01,,,0.09,WUHU216HW,2013-03-16 20:41:00,
2013-03-16 15:46:00,31.1,21.1,29.54,WNW,293,4.5,4.5,66,0.01,,,0.09,WUHU216HW,2013-03-16 20:46:00,
2013-03-16 15:51:00,30.6,20.5,29.54,NW,315,2.9,4.5,66,0.00,,,0.09,WUHU216HW,2013-03-16 20:51:00,
2013-03-16 15:56:00,30.6,20.5,29.54,NW,315,2.9,4.5,66,0.00,,,0.09,WUHU216HW,2013-03-16 20:56:00,
2013-03-16 16:01:00,30.6,20.5,29.53,NW,315,2.9,2.9,66,0.00,,,0.09,WUHU216HW,2013-03-16 21:01:00,
2013-03-16 16:06:00,30.1,20.0,29.53,WNW,293,5.8,5.8,66,0.00,,,0.09,WUHU216HW,2013-03-16 21:06:00,
2013-03-16 16:11:00,29.9,20.2,29.53,West,270,4.3,5.8,67,0.00,,,0.09,WUHU216HW,2013-03-16 21:11:00,
2013-03-16 16:16:00,30.2,20.9,29.53,WNW,293,4.7,5.8,68,0.00,,,0.09,WUHU216HW,2013-03-16 21:16:00,
2013-03-16 16:21:00,30.2,20.9,29.53,WNW,293,4.7,4.7,68,0.00,,,0.09,WUHU216HW,2013-03-16 21:21:00,
2013-03-16 16:26:00,30.2,20.9,29.54,WNW,293,4.7,4.7,68,0.00,,,0.09,WUHU216HW,2013-03-16 21:26:00,
2013-03-16 16:31:00,30.2,20.9,29.54,WNW,293,4.7,4.7,68,0.00,,,0.09,WUHU216HW,2013-03-16 21:31:00,
2013-03-16 16:36:00,33.1,22.2,29.54,NW,315,4.3,8.5,64,0.00,,,0.09,WUHU216HW,2013-03-16 21:36:00,
2013-03-16 16:41:00,33.5,22.9,29.54,West,270,7.6,8.5,65,0.00,,,0.09,WUHU216HW,2013-03-16 21:41:00,
2013-03-16 16:46:00,33.5,22.1,29.53,NW,315,10.3,10.3,63,0.00,,,0.09,WUHU216HW,2013-03-16 21:46:00,
2013-03-16 16:52:00,33.7,21.6,29.53,WNW,293,8.3,10.3,61,0.00,,,0.09,WUHU216HW,2013-03-16 21:52:00,
2013-03-16 16:57:00,33.1,21.5,29.53,NW,315,7.4,8.3,62,0.00,,,0.09,WUHU216HW,2013-03-16 21:57:00,
2013-03-16 17:02:00,31.7,20.2,29.53,West,270,7.2,8.3,62,0.00,,,0.09,WUHU216HW,2013-03-16 22:02:00,
2013-03-16 17:07:00,31.5,20.3,29.53,NW,315,6.9,7.4,63,0.00,,,0.09,WUHU216HW,2013-03-16 22:07:00,
2013-03-16 17:12:00,31.3,20.5,29.53,NNW,338,5.1,7.6,64,0.00,,,0.09,WUHU216HW,2013-03-16 22:12:00,
2013-03-16 17:17:00,30.6,19.8,29.53,WSW,248,3.4,7.6,64,0.00,,,0.09,WUHU216HW,2013-03-16 22:17:00,
2013-03-16 17:22:00,30.4,19.6,29.53,NNW,338,6.5,6.5,64,0.00,,,0.09,WUHU216HW,2013-03-16 22:22:00,
2013-03-16 17:27:00,30.4,20.0,29.53,WNW,293,3.4,6.5,65,0.00,,,0.09,WUHU216HW,2013-03-16 22:27:00,
2013-03-16 17:32:00,30.4,20.0,29.53,NW,315,5.4,6.5,65,0.00,,,0.09,WUHU216HW,2013-03-16 22:32:00,
2013-03-16 17:37:00,30.2,20.2,29.53,WNW,293,3.8,5.4,66,0.00,,,0.09,WUHU216HW,2013-03-16 22:37:00,
2013-03-16 17:42:00,30.1,20.0,29.53,NNW,338,4.9,5.8,66,0.00,,,0.09,WUHU216HW,2013-03-16 22:42:00,
2013-03-16 17:47:00,30.4,20.3,29.53,NW,315,3.1,5.8,66,0.00,,,0.09,WUHU216HW,2013-03-16 22:47:00,
2013-03-16 17:52:00,31.1,21.1,29.53,NNW,338,6.0,6.0,66,0.00,,,0.09,WUHU216HW,2013-03-16 22:52:00,
2013-03-16 17:57:00,32.0,21.6,29.53,NNW,338,5.4,6.7,65,0.00,,,0.09,WUHU216HW,2013-03-16 22:57:00,
2013-03-16 18:02:00,31.7,20.9,29.53,WNW,293,4.0,6.7,64,0.00,,,0.09,WUHU216HW,2013-03-16 23:02:00,
2013-03-16 18:07:00,30.4,19.6,29.53,WSW,248,2.5,5.4,64,0.00,,,0.09,WUHU216HW,2013-03-16 23:07:00,
2013-03-16 18:12:00,29.5,19.2,29.53,West,270,4.5,4.5,65,0.00,,,0.09,WUHU216HW,2013-03-16 23:12:00,
2013-03-16 18:17:00,29.2,19.2,29.53,WNW,293,3.8,4.5,66,0.00,,,0.09,WUHU216HW,2013-03-16 23:17:00,
2013-03-16 18:22:00,29.0,19.0,29.53,NW,315,3.4,4.0,66,0.00,,,0.09,WUHU216HW,2013-03-16 23:22:00,
2013-03-16 18:27:00,28.6,18.7,29.53,WNW,293,3.4,3.8,66,0.00,,,0.09,WUHU216HW,2013-03-16 23:27:00,
2013-03-16 18:32:00,28.4,18.9,29.54,WNW,293,3.1,7.2,67,0.00,,,0.09,WUHU216HW,2013-03-16 23:32:00,
2013-03-16 18:37:00,28.4,18.9,29.53,West,270,3.1,7.2,67,0.00,,,0.09,WUHU216HW,2013-03-16 23:37:00,
2013-03-16 18:42:00,28.3,19.1,29.53,WSW,248,2.0,4.0,68,0.00,,,0.09,WUHU216HW,2013-03-16 23:42:00,
2013-03-16 18:47:00,28.1,18.9,29.54,WNW,293,5.4,5.8,68,0.00,,,0.09,WUHU216HW,2013-03-16 23:47:00,
2013-03-16 18:52:00,27.9,19.1,29.54,NW,315,2.7,5.8,69,0.00,,,0.09,WUHU216HW,2013-03-16 23:52:00,
2013-03-16 18:57:00,27.9,19.1,29.53,WNW,293,3.4,5.4,69,0.00,,,0.09,WUHU216HW,2013-03-16 23:57:00,
2013-03-16 19:02:00,27.7,19.3,29.54,West,270,6.5,6.5,70,0.00,,,0.09,WUHU216HW,2013-03-17 00:02:00,
2013-03-16 19:07:00,27.7,19.3,29.54,WSW,248,5.1,6.5,70,0.00,,,0.09,WUHU216HW,2013-03-17 00:07:00,
2013-03-16 19:12:00,27.7,19.3,29.54,NW,315,4.0,6.5,70,0.00,,,0.09,WUHU216HW,2013-03-17 00:12:00,
2013-03-16 19:17:00,27.7,19.3,29.55,NW,315,4.5,8.5,70,0.00,,,0.09,WUHU216HW,2013-03-17 00:17:00,
2013-03-16 19:22:00,27.7,19.3,29.55,NW,315,3.8,8.5,70,0.00,,,0.09,WUHU216HW,2013-03-17 00:22:00,
2013-03-16 19:27:00,27.5,19.1,29.55,NNW,338,5.1,6.5,70,0.00,,,0.09,WUHU216HW,2013-03-17 00:27:00,
2013-03-16 19:32:00,27.5,19.1,29.55,NNW,338,3.4,6.5,70,0.00,,,0.09,WUHU216HW,2013-03-17 00:32:00,
2013-03-16 19:37:00,27.4,18.9,29.55,NW,315,3.4,6.3,70,0.00,,,0.09,WUHU216HW,2013-03-17 00:37:00,
2013-03-16 19:42:00,27.4,19.2,29.55,NW,315,3.8,6.3,71,0.00,,,0.09,WUHU216HW,2013-03-17 00:42:00,
2013-03-16 19:47:00,27.2,19.0,29.56,West,270,6.0,6.0,71,0.00,,,0.09,WUHU216HW,2013-03-17 00:47:00,
2013-03-16 19:52:00,27.2,19.0,29.56,WNW,293,4.3,6.0,71,0.00,,,0.09,WUHU216HW,2013-03-17 00:52:00,
2013-03-16 19:57:00,27.0,18.8,29.56,WNW,293,6.3,6.3,71,0.00,,,0.09,WUHU216HW,2013-03-17 00:57:00,
2013-03-16 20:02:00,27.0,18.8,29.56,West,270,4.9,6.3,71,0.00,,,0.09,WUHU216HW,2013-03-17 01:02:00,
2013-03-16 20:08:00,27.0,19.2,29.57,WNW,293,4.7,6.3,72,0.00,,,0.09,WUHU216HW,2013-03-17 01:08:00,
2013-03-16 20:13:00,27.0,19.2,29.57,NW,315,4.0,8.1,72,0.00,,,0.09,WUHU216HW,2013-03-17 01:13:00,
2013-03-16 20:18:00,26.8,19.0,29.58,WNW,293,8.3,8.3,72,0.00,,,0.09,WUHU216HW,2013-03-17 01:18:00,
2013-03-16 20:23:00,26.6,18.8,29.58,WNW,293,4.0,8.3,72,0.00,,,0.09,WUHU216HW,2013-03-17 01:23:00,
2013-03-16 20:28:00,26.3,18.5,29.58,NW,315,4.0,8.3,72,0.00,,,0.09,WUHU216HW,2013-03-17 01:28:00,
2013-03-16 20:33:00,26.1,18.3,29.58,NW,315,5.8,7.2,72,0.00,,,0.09,WUHU216HW,2013-03-17 01:33:00,
2013-03-16 20:38:00,25.9,18.1,29.58,NW,315,3.6,7.2,72,0.00,,,0.09,WUHU216HW,2013-03-17 01:38:00,
2013-03-16 20:43:00,25.9,18.1,29.58,NW,315,6.3,6.3,72,0.00,,,0.09,WUHU216HW,2013-03-17 01:43:00,
2013-03-16 20:48:00,25.9,18.1,29.59,NW,315,4.0,6.3,72,0.00,,,0.09,WUHU216HW,2013-03-17 01:48:00,
2013-03-16 20:53:00,25.9,18.1,29.59,WNW,293,5.8,6.5,72,0.00,,,0.09,WUHU216HW,2013-03-17 01:53:00,
2013-03-16 20:58:00,25.9,18.1,29.60,NNW,338,5.4,8.5,72,0.00,,,0.09,WUHU216HW,2013-03-17 01:58:00,
2013-03-16 21:03:00,26.1,18.3,29.60,NW,315,6.9,8.5,72,0.00,,,0.09,WUHU216HW,2013-03-17 02:03:00,
2013-03-16 21:08:00,26.3,18.5,29.61,NNW,338,5.4,7.6,72,0.00,,,0.09,WUHU216HW,2013-03-17 02:08:00,
2013-03-16 21:13:00,26.3,18.5,29.61,NNW,338,6.9,7.6,72,0.00,,,0.09,WUHU216HW,2013-03-17 02:13:00,
2013-03-16 21:18:00,26.3,18.5,29.61,NNW,338,8.9,8.9,72,0.00,,,0.09,WUHU216HW,2013-03-17 02:18:00,
2013-03-16 21:23:00,26.1,18.3,29.61,NW,315,5.4,8.9,72,0.00,,,0.09,WUHU216HW,2013-03-17 02:23:00,
2013-03-16 21:28:00,26.1,18.3,29.62,NNW,338,3.6,8.9,72,0.00,,,0.09,WUHU216HW,2013-03-17 02:28:00,
2013-03-16 21:33:00,25.9,18.1,29.62,NNW,338,4.7,7.6,72,0.00,,,0.09,WUHU216HW,2013-03-17 02:33:00,
2013-03-16 21:38:00,25.9,18.1,29.61,NW,315,5.4,6.7,72,0.00,,,0.09,WUHU216HW,2013-03-17 02:38:00,
2013-03-16 21:43:00,25.7,17.9,29.61,NW,315,4.5,6.3,72,0.00,,,0.09,WUHU216HW,2013-03-17 02:43:00,
2013-03-16 21:48:00,25.7,17.9,29.61,NW,315,4.5,7.6,72,0.00,,,0.09,WUHU216HW,2013-03-17 02:48:00,
2013-03-16 21:53:00,25.6,17.7,29.61,NW,315,8.5,8.5,72,0.00,,,0.09,WUHU216HW,2013-03-17 02:53:00,
2013-03-16 21:58:00,25.6,17.7,29.62,NW,315,3.4,8.5,72,0.00,,,0.09,WUHU216HW,2013-03-17 02:58:00,
2013-03-16 22:03:00,25.4,17.6,29.61,WNW,293,8.5,8.5,72,0.00,,,0.09,WUHU216HW,2013-03-17 03:03:00,
2013-03-16 22:08:00,25.2,17.4,29.61,WNW,293,3.6,8.5,72,0.00,,,0.09,WUHU216HW,2013-03-17 03:08:00,
2013-03-16 22:13:00,24.8,17.0,29.62,WSW,248,3.4,8.5,72,0.00,,,0.09,WUHU216HW,2013-03-17 03:13:00,
2013-03-16 22:18:00,24.8,17.0,29.62,WNW,293,6.9,6.9,72,0.00,,,0.09,WUHU216HW,2013-03-17 03:18:00,
2013-03-16 22:23:00,24.5,16.8,29.62,NNW,338,7.2,7.2,72,0.00,,,0.09,WUHU216HW,2013-03-17 03:23:00,
2013-03-16 22:28:00,24.1,16.4,29.62,NW,315,2.5,7.2,72,0.00,,,0.09,WUHU216HW,2013-03-17 03:28:00,
2013-03-16 22:33:00,24.1,16.4,29.62,NW,315,6.3,7.2,72,0.00,,,0.09,WUHU216HW,2013-03-17 03:33:00,
2013-03-16 22:38:00,23.9,16.2,29.62,WNW,293,3.6,6.3,72,0.00,,,0.09,WUHU216HW,2013-03-17 03:38:00,
2013-03-16 22:43:00,23.8,16.0,29.62,NW,315,2.9,6.3,72,0.00,,,0.09,WUHU216HW,2013-03-17 03:43:00,
2013-03-16 22:48:00,23.4,16.0,29.62,NW,315,4.5,4.5,73,0.00,,,0.09,WUHU216HW,2013-03-17 03:48:00,
2013-03-16 22:53:00,23.4,16.0,29.62,NW,315,4.3,4.7,73,0.00,,,0.09,WUHU216HW,2013-03-17 03:53:00,
2013-03-16 22:58:00,23.2,15.8,29.62,NW,315,3.6,4.7,73,0.00,,,0.09,WUHU216HW,2013-03-17 03:58:00,
2013-03-16 23:00:00,23.2,15.8,29.62,NW,315,3.6,4.7,73,0.00,,,0.09,WUHU216HW,2013-03-17 04:00:00,
2013-03-16 23:05:00,23.0,15.7,29.62,WNW,293,2.5,4.5,73,0.00,,,0.09,WUHU216HW,2013-03-17 04:05:00,
2013-03-16 23:10:00,23.0,15.7,29.63,NNW,338,4.3,4.3,73,0.00,,,0.09,WUHU216HW,2013-03-17 04:10:00,
2013-03-16 23:15:00,22.9,15.5,29.63,NW,315,3.8,4.3,73,0.00,,,0.09,WUHU216HW,2013-03-17 04:15:00,
2013-03-16 23:20:00,22.7,15.3,29.63,NW,315,2.7,4.3,73,0.00,,,0.09,WUHU216HW,2013-03-17 04:20:00,
2013-03-16 23:25:00,22.5,15.1,29.63,WNW,293,2.5,3.8,73,0.00,,,0.09,WUHU216HW,2013-03-17 04:25:00,
2013-03-16 23:30:00,22.3,15.3,29.63,West,270,0.9,3.4,74,0.00,,,0.09,WUHU216HW,2013-03-17 04:30:00,
2013-03-16 23:35:00,22.3,15.3,29.63,NW,315,3.4,3.4,74,0.00,,,0.09,WUHU216HW,2013-03-17 04:35:00,
2013-03-16 23:40:00,22.1,15.1,29.64,NW,315,4.3,4.3,74,0.00,,,0.09,WUHU216HW,2013-03-17 04:40:00,
2013-03-16 23:45:00,21.8,14.8,29.64,NW,315,3.1,4.3,74,0.00,,,0.09,WUHU216HW,2013-03-17 04:45:00,
2013-03-16 23:50:00,21.6,14.6,29.64,NW,315,2.7,4.3,74,0.00,,,0.09,WUHU216HW,2013-03-17 04:50:00,
2013-03-16 23:55:00,21.6,14.6,29.64,WNW,293,2.2,3.1,74,0.00,,,0.09,WUHU216HW,2013-03-17 04:55:00,